| time (UTC) | temp C | wind direction | speed KPH | gust KPH | rain 1hr cm | rain 24hr cm | rain mn cm | humidity % | barometer mb |
| 20260903154538 | 23 | 167 | 0.0 | 4.8 | 0.00 | 0.03 | 0.03 | 62 | 1020.0 |
| 20260903153037 | 23 | 167 | 0.0 | 1.6 | 0.00 | 0.03 | 0.03 | 64 | 1020.0 |
| 20260903151533 | 23 | 167 | 0.0 | 3.2 | 0.00 | 0.03 | 0.03 | 63 | 1019.9 |
| 20260903150043 | 23 | 167 | 0.0 | 1.6 | 0.00 | 0.03 | 0.03 | 63 | 1019.9 |
| 20260903144534 | 22 | 167 | 0.0 | 1.6 | 0.00 | 0.03 | 0.03 | 64 | 1019.8 |
| 20260903143024 | 22 | 167 | 0.0 | 1.6 | 0.00 | 0.03 | 0.03 | 65 | 1019.8 |
| 20260903141523 | 22 | 167 | 0.0 | 1.6 | 0.00 | 0.03 | 0.03 | 65 | 1019.8 |
| 20260903140022 | 21 | 167 | 0.0 | 0.0 | 0.00 | 0.03 | 0.03 | 66 | 1019.9 |
| 20260903134521 | 21 | 167 | 0.0 | 0.0 | 0.00 | 0.03 | 0.03 | 66 | 1019.8 |
| 20260903133021 | 21 | 165 | 0.0 | 0.0 | 0.00 | 0.03 | 0.03 | 67 | 1019.8 |
| 20260903131521 | 21 | 165 | 0.0 | 1.6 | 0.00 | 0.03 | 0.03 | 67 | 1019.6 |
| 20260903130020 | 21 | 165 | 0.0 | 0.0 | 0.00 | 0.03 | 0.03 | 67 | 1019.8 |
| 20260903124519 | 21 | 165 | 0.0 | 0.0 | 0.00 | 0.03 | 0.03 | 67 | 1019.8 |
| 20260903123019 | 21 | 165 | 0.0 | 0.0 | 0.00 | 0.03 | 0.03 | 66 | 1019.8 |
| 20260903121542 | 21 | 165 | 0.0 | 0.0 | 0.00 | 0.03 | 0.03 | 65 | 1019.8 |
| 20260903120018 | 21 | 165 | 0.0 | 0.0 | 0.03 | 0.03 | 0.03 | 65 | 1019.8 |
| 20260903114518 | 21 | 165 | 0.0 | 0.0 | 0.03 | 0.03 | 0.03 | 66 | 1019.7 |
| 20260903113018 | 21 | 165 | 0.0 | 0.0 | 0.03 | 0.03 | 0.03 | 66 | 1019.5 |
| 20260903111516 | 21 | 165 | 0.0 | 0.0 | 0.03 | 0.03 | 0.03 | 65 | 1019.2 |
| 20260903110016 | 21 | 165 | 0.0 | 0.0 | 0.00 | 0.00 | 0.00 | 65 | 1019.2 |
| 20260903104519 | 21 | 165 | 0.0 | 0.0 | 0.00 | 0.00 | 0.00 | 65 | 1019.1 |
| 20260903103015 | 21 | 165 | 0.0 | 0.0 | 0.00 | 0.00 | 0.00 | 65 | 1019.0 |
| 20260903101515 | 21 | 165 | 0.0 | 0.0 | 0.00 | 0.00 | 0.00 | 65 | 1018.9 |
| 20260903100030 | 21 | 165 | 0.0 | 0.0 | 0.00 | 0.00 | 0.00 | 66 | 1019.0 |
| 20260903094514 | 21 | 165 | 0.0 | 0.0 | 0.00 | 0.00 | 0.00 | 67 | 1019.1 |
| 20260903093012 | 21 | 165 | 0.0 | 0.0 | 0.00 | 0.00 | 0.00 | 67 | 1018.9 |
| 20260903091512 | 21 | 165 | 0.0 | 0.0 | 0.00 | 0.00 | 0.00 | 67 | 1018.9 |
| 20260903090010 | 21 | 165 | 0.0 | 0.0 | 0.00 | 0.00 | 0.00 | 67 | 1018.9 |
| 20260903084516 | 21 | 165 | 0.0 | 0.0 | 0.00 | 0.00 | 0.00 | 67 | 1018.8 |
| 20260903083010 | 21 | 165 | 0.0 | 0.0 | 0.00 | 0.00 | 0.00 | 66 | 1018.9 |
| 20260903081509 | 21 | 165 | 0.0 | 0.0 | 0.00 | 0.00 | 0.00 | 67 | 1018.7 |
| 20260903080008 | 21 | 165 | 0.0 | 0.0 | 0.00 | 0.00 | 0.00 | 67 | 1018.8 |
| 20260903074509 | 21 | 165 | 0.0 | 0.0 | 0.00 | 0.00 | 0.00 | 66 | 1018.8 |
| 20260903073017 | 21 | 165 | 0.0 | 0.0 | 0.00 | 0.00 | 0.00 | 66 | 1018.7 |
| 20260903071504 | 21 | 165 | 0.0 | 0.0 | 0.00 | 0.00 | 0.00 | 64 | 1019.0 |
| 20260903070002 | 21 | 165 | 0.0 | 0.0 | 0.00 | 0.00 | 0.00 | 63 | 1019.1 |
| 20260903064601 | 21 | 165 | 0.0 | 0.0 | 0.00 | 0.00 | 0.00 | 63 | 1019.0 |
| 20260903063100 | 21 | 165 | 0.0 | 0.0 | 0.00 | 0.00 | 0.00 | 63 | 1019.0 |
| 20260903061601 | 21 | 165 | 0.0 | 0.0 | 0.00 | 0.00 | 0.00 | 63 | 1019.0 |
| 20260903060120 | 21 | 165 | 0.0 | 0.0 | 0.00 | 0.00 | 0.00 | 63 | 1019.2 |
| 20260903054555 | 21 | 165 | 0.0 | 0.0 | 0.00 | 0.00 | 0.00 | 62 | 1019.4 |
| 20260903053059 | 21 | 165 | 0.0 | 0.0 | 0.00 | 0.00 | 0.00 | 62 | 1019.5 |
| 20260903051604 | 21 | 165 | 0.0 | 0.0 | 0.00 | 0.00 | 0.00 | 62 | 1019.5 |
| 20260903050051 | 22 | 165 | 0.0 | 0.0 | 0.00 | 0.00 | 0.00 | 61 | 1019.5 |
| 20260903044550 | 22 | 165 | 0.0 | 0.0 | 0.00 | 0.00 | 0.00 | 61 | 1019.5 |
| 20260903043057 | 22 | 165 | 0.0 | 0.0 | 0.00 | 0.00 | 0.00 | 61 | 1019.6 |
| 20260903041552 | 22 | 165 | 0.0 | 0.0 | 0.00 | 0.00 | 0.00 | 61 | 1019.7 |
| 20260903040047 | 22 | 165 | 0.0 | 0.0 | 0.00 | 0.00 | 0.00 | 61 | 1020.0 |
| 20260903034546 | 22 | 165 | 0.0 | 0.0 | 0.00 | 0.00 | 0.00 | 60 | 1019.9 |
| 20260903033048 | 22 | 165 | 0.0 | 0.0 | 0.00 | 0.00 | 0.00 | 60 | 1020.2 |
| 20260903031546 | 22 | 165 | 0.0 | 0.0 | 0.00 | 0.00 | 0.00 | 60 | 1020.3 |
| 20260903030051 | 22 | 165 | 0.0 | 1.6 | 0.00 | 0.00 | 0.00 | 61 | 1020.3 |
| 20260903024546 | 22 | 165 | 0.0 | 0.0 | 0.00 | 0.00 | 0.00 | 62 | 1020.3 |
| 20260903023046 | 22 | 165 | 0.0 | 0.0 | 0.00 | 0.00 | 0.00 | 62 | 1020.1 |
| 20260903021549 | 22 | 165 | 0.0 | 0.0 | 0.00 | 0.00 | 0.00 | 62 | 1020.3 |
| 20260903020043 | 22 | 165 | 0.0 | 0.0 | 0.00 | 0.00 | 0.00 | 61 | 1020.2 |
| 20260903014551 | 22 | 165 | 0.0 | 0.0 | 0.00 | 0.00 | 0.00 | 61 | 1020.2 |
| 20260903013043 | 22 | 165 | 0.0 | 0.0 | 0.00 | 0.00 | 0.00 | 61 | 1019.8 |
| 20260903011600 | 22 | 165 | 0.0 | 0.0 | 0.00 | 0.00 | 0.00 | 61 | 1019.6 |
| 20260903010044 | 22 | 165 | 0.0 | 0.0 | 0.00 | 0.00 | 0.00 | 63 | 1019.5 |
| 20260903004541 | 22 | 165 | 0.0 | 1.6 | 0.00 | 0.00 | 0.00 | 63 | 1019.2 |
| 20260903003044 | 22 | 165 | 0.0 | 0.0 | 0.00 | 0.00 | 0.00 | 63 | 1019.1 |
| 20260903001540 | 22 | 165 | 0.0 | 0.0 | 0.00 | 0.00 | 0.00 | 62 | 1018.9 |
| 20260903000049 | 23 | 165 | 0.0 | 0.0 | 0.00 | 0.00 | 0.00 | 61 | 1018.8 |
| 20260902234541 | 23 | 165 | 0.0 | 0.0 | 0.00 | 0.00 | 0.00 | 60 | 1018.9 |
| 20260902233049 | 23 | 165 | 0.0 | 0.0 | 0.00 | 0.00 | 0.00 | 60 | 1018.9 |
| 20260902231538 | 24 | 165 | 0.0 | 0.0 | 0.00 | 0.00 | 0.00 | 59 | 1019.0 |
| 20260902230043 | 24 | 165 | 0.0 | 0.0 | 0.00 | 0.00 | 0.00 | 57 | 1019.0 |
| 20260902224535 | 24 | 165 | 0.0 | 0.0 | 0.00 | 0.00 | 0.00 | 56 | 1019.1 |
| 20260902223035 | 25 | 165 | 0.0 | 0.0 | 0.00 | 0.00 | 0.00 | 57 | 1019.1 |
| 20260902221534 | 25 | 165 | 0.0 | 0.0 | 0.00 | 0.00 | 0.00 | 58 | 1019.3 |
| 20260902220043 | 26 | 165 | 0.0 | 3.2 | 0.00 | 0.00 | 0.00 | 56 | 1019.3 |
| 20260902214551 | 26 | 165 | 0.0 | 3.2 | 0.00 | 0.00 | 0.00 | 56 | 1019.4 |
| 20260902213032 | 26 | 165 | 0.0 | 3.2 | 0.00 | 0.00 | 0.00 | 54 | 1019.3 |
| 20260902211531 | 26 | 165 | 0.0 | 3.2 | 0.00 | 0.00 | 0.00 | 54 | 1019.3 |
| 20260902210034 | 25 | 165 | 0.0 | 3.2 | 0.00 | 0.00 | 0.00 | 57 | 1019.4 |
| 20260902204530 | 26 | 165 | 1.6 | 3.2 | 0.00 | 0.00 | 0.00 | 55 | 1019.4 |
| 20260902203030 | 25 | 165 | 0.0 | 3.2 | 0.00 | 0.00 | 0.00 | 52 | 1019.5 |
| 20260902201537 | 25 | 165 | 0.0 | 3.2 | 0.00 | 0.00 | 0.00 | 51 | 1019.5 |
| 20260902200027 | 26 | 165 | 1.6 | 3.2 | 0.00 | 0.00 | 0.00 | 51 | 1019.7 |
| 20260902194524 | 26 | 165 | 0.0 | 3.2 | 0.00 | 0.00 | 0.00 | 48 | 1019.8 |
| 20260902193023 | 26 | 165 | 1.6 | 3.2 | 0.00 | 0.00 | 0.00 | 50 | 1020.1 |
| 20260902191525 | 26 | 165 | 0.0 | 3.2 | 0.00 | 0.00 | 0.00 | 48 | 1020.2 |
| 20260902190020 | 26 | 165 | 0.0 | 3.2 | 0.00 | 0.00 | 0.00 | 47 | 1020.3 |
| 20260902184522 | 26 | 164 | 0.0 | 0.0 | 0.00 | 0.00 | 0.00 | 46 | 1020.4 |
| 20260902183019 | 26 | 164 | 0.0 | 0.0 | 0.00 | 0.00 | 0.00 | 45 | 1020.5 |
| 20260902181518 | 27 | 164 | 0.0 | 0.0 | 0.00 | 0.00 | 0.00 | 48 | 1020.5 |
| 20260902180016 | 27 | 164 | 0.0 | 0.0 | 0.00 | 0.00 | 0.00 | 48 | 1020.7 |
| 20260902174514 | 26 | 164 | 0.0 | 0.0 | 0.00 | 0.00 | 0.00 | 48 | 1020.7 |
| 20260902173018 | 26 | 164 | 0.0 | 0.0 | 0.00 | 0.00 | 0.00 | 58 | 1021.0 |
| 20260902171504 | 25 | 164 | 0.0 | 0.0 | 0.00 | 0.00 | 0.00 | 62 | 1021.0 |
| 20260902170100 | 23 | 164 | 0.0 | 1.6 | 0.00 | 0.00 | 0.00 | 66 | 1021.2 |
| 20260902164557 | 23 | 164 | 0.0 | 3.2 | 0.00 | 0.00 | 0.00 | 67 | 1021.4 |
| 20260902163055 | 23 | 164 | 0.0 | 3.2 | 0.00 | 0.00 | 0.00 | 65 | 1021.6 |
| 20260902161553 | 22 | 164 | 0.0 | 1.6 | 0.00 | 0.00 | 0.00 | 65 | 1021.7 |